"Pseudo-MPEC" for P21JQKb

Created 2023 Sep 19 16:22:39 UT using Find_Orb

Click here for an explanation of pseudo-MPECs

 
 Astrometry: 
     P21JQKb  C2023 09 13lY*@rD[VsO$#m%kYR0Zewurul!bSJw^[t0Z0fS_D0,J!e1Fh/u`^F52
     P21JQKb  C2023 09 13g@Astrometry_*Nd[redacted;(p2P2R)Kclickw:XGoC#[CEjr,F52
     P21JQKb  C2023 09 13(:hD.,%6.um@Yr/+I#=ps:NT8sx0YZJ`HHnT'_WR6]1/lpXJg)w(F52
     P21JQKb  C2023 09 13W+t*]^d=cJ@1rNmWkJ/'-ujSherek##Y`T;=95GvMe:6i4bbos-?F52
     P21JQKb* C2023 09 18]5LXYY#\7\Bkw9+f;[:uPpc,2L!_YtBHT(ZXdq:alTGXo)rPX#FvF52
     P21JQKb  C2023 09 18c2H?q[9n*:HfN*Euk;gF=EorE2OE.lWV1)lKwv?EbmLllG8-h8JgF52
     P21JQKb  C2023 09 18-J9S]hxE50F9Hq6xj[`]a,Obx7P6;rDf1Q#T)Hi9$5,LaBJQXdi?F52
     P21JQKb  C2023 09 18Kr\#/f:K^8kpCHJLJ9fO(rUioZuMxdFI\\'FIAK-3#V'(htHq#uMF51
     P21JQKb  C2023 09 18FDauq__qcvTjvW1Gdx=BT5#6#xfor_uU4!Xcw)H6T1f.!b?fc*dZF51
     P21JQKb KC2023 09 19o)/s[nexplanationH6\Jl:gCC53w!`%CZc-:C0'5]b]+S?/E3vBH21
     P21JQKb KC2023 09 190eUaf/!C'f`DMTh-dIv!13`dRoc?E+O1;7wJ8t*s:jrBE`Oc/et9H21
     P21JQKb KC2023 09 19K9FuVe@b;+W,][DWfrrVj:U*C?mI^g=cZc^7NYSCd0OGkNY1FQBjH21

Station data:
(F51) Pan-STARRS 1, Haleakala  (N20.707234 W156.255910)  US/Hawaii.
   Observers J. Bulger, T. Lowe, A. Schultz, M. Willman. Measurers K.
   Chambers, S. Chastel, T. de Boer, L. Denneau, J. Fairlamb, H. Flewelling,
   M. Huber, C.-C. Lin, E. Magnier, Y. Ramanjooloo, R. Wainscoat, R. Weryk.
   1.8-m Ritchey-Chrétien + CCD.
(F52) Pan-STARRS 2, Haleakala  (N20.707382 W156.255910)  US/Hawaii.
   Observers J. Bulger, T. Dukes, T. Lowe, A. Schultz, M. Willman. Measurers
   K. Chambers, S. Chastel, T. de Boer, L. Denneau, J. Fairlamb, H.
   Flewelling, M. Huber, C.-C. Lin, E. Magnier, Y. Ramanjooloo, R. Wainscoat,
   R. Weryk. 1.8-m Ritchey-Chrétien + CCD.
(H21) Astronomical Research Observatory, Westfield  (N39.483054 W87.968270)
   US/Illinois.  Observer R. Holmes. Measurers S. Foglia, L. Buzzi, T.
   Linder, R. Holmes. 0.76-m f/3.0 astrograph + CCD0.81-m f/4.0 astrograph +
   CCD0.61-m f/4.5 astrograph + CCD0.40-m f/5.32 astrograph + CCD.

Orbital elements:  P21JQKb
   Perihelion 2022 Jul 15.12990 +/- 18.3 TT =  3:07:03 (JD 2459775.62990)
Epoch 2023 Sep 19.0 TT = JDT 2460206.5   Earth MOID: 0.8353      AutoNEOCP
M 157.39620686 +/- 6                (J2000 ecliptic)
n   0.36529851 +/- 0.000733         Peri.  309.84568 +/- 5.8
a   1.93807588 +/- 0.00259          Node   251.56226 +/- 0.32
e   0.0610042 +/- 0.00135           Incl.   18.81680 +/- 0.07
P   2.70/985.48d           H 19.02  G  0.15   U  8.0
q 1.81984492 +/- 0.00153    Q 2.05630684 +/- 0.00511
From 12 observations 2023 Sept. 13-19; mean residual 0".12
Residuals in arcseconds: 
230913 F52  .05-  .01+    230918 F52  .01+  .04+    230918 F51  .04+  .00     
230913 F52  .07-  .06+    230918 F52  .03-  .01+    230919 H21  .20+  .23-    
230913 F52  .01+  .03-    230918 F52  .10-  .04-    230919 H21  .37-  .06-    
230913 F52  .12+  .04-    230918 F51  .07+  .00     230919 H21  .15+  .22+    

Ephemerides (geocentric):
Date (UTC) HH   RA             Dec           delta  r     elong  mag " sig PA
---- --------  ------------   ------------  ------ ------ -----  --- --------
2023 09 19 16  23 34 43.231   +33 30 35.22  1.1435 2.0484 144.9 21.8 .401 150
2023 09 19 17  23 34 40.458   +33 30 15.51  1.1435 2.0484 144.9 21.8 .418 150
2023 09 19 18  23 34 37.684   +33 29 55.75  1.1434 2.0484 144.9 21.8 .435 150
2023 09 19 19  23 34 34.911   +33 29 35.94  1.1433 2.0484 144.9 21.8 .451 149
2023 09 19 20  23 34 32.139   +33 29 16.07  1.1432 2.0484 144.9 21.8 .468 149
2023 09 19 21  23 34 29.366   +33 28 56.15  1.1431 2.0484 144.9 21.8 .486 149
2023 09 19 22  23 34 26.594   +33 28 36.18  1.1430 2.0484 145.0 21.8 .503 149
2023 09 19 23  23 34 23.822   +33 28 16.15  1.1430 2.0485 145.0 21.8 .521 149
2023 09 20 00  23 34 21.051   +33 27 56.07  1.1429 2.0485 145.0 21.8 .538 149
2023 09 20 01  23 34 18.280   +33 27 35.94  1.1428 2.0485 145.0 21.8 .556 149
2023 09 20 02  23 34 15.509   +33 27 15.76  1.1427 2.0485 145.0 21.8 .574 149
2023 09 20 03  23 34 12.739   +33 26 55.52  1.1426 2.0485 145.1 21.8 .592 148
2023 09 20 04  23 34 09.969   +33 26 35.23  1.1426 2.0485 145.1 21.7 .611 148
2023 09 20 05  23 34 07.200   +33 26 14.89  1.1425 2.0485 145.1 21.7 .630 148
2023 09 20 06  23 34 04.431   +33 25 54.49  1.1424 2.0485 145.1 21.7 .648 148
2023 09 20 07  23 34 01.662   +33 25 34.04  1.1423 2.0485 145.1 21.7 .667 148
2023 09 20 08  23 33 58.894   +33 25 13.54  1.1422 2.0485 145.1 21.7 .687 148
2023 09 20 09  23 33 56.126   +33 24 52.98  1.1422 2.0486 145.2 21.7 .706 148
2023 09 20 10  23 33 53.358   +33 24 32.38  1.1421 2.0486 145.2 21.7 .725 148
2023 09 20 11  23 33 50.591   +33 24 11.72  1.1420 2.0486 145.2 21.7 .745 148
2023 09 20 12  23 33 47.825   +33 23 51.00  1.1419 2.0486 145.2 21.7 .765 148
2023 09 20 13  23 33 45.059   +33 23 30.24  1.1419 2.0486 145.2 21.7 .785 147
2023 09 20 14  23 33 42.293   +33 23 09.42  1.1418 2.0486 145.2 21.7 .805 147
2023 09 20 15  23 33 39.528   +33 22 48.55  1.1417 2.0486 145.3 21.7 .826 147
2023 09 20 16  23 33 36.763   +33 22 27.63  1.1416 2.0486 145.3 21.7 .846 147
2023 09 20 17  23 33 33.999   +33 22 06.65  1.1416 2.0486 145.3 21.7 .867 147
2023 09 20 18  23 33 31.235   +33 21 45.63  1.1415 2.0487 145.3 21.7 .888 147
2023 09 20 19  23 33 28.472   +33 21 24.55  1.1414 2.0487 145.3 21.7 .909 147
2023 09 20 20  23 33 25.709   +33 21 03.42  1.1413 2.0487 145.3 21.7 .930 147
2023 09 20 21  23 33 22.947   +33 20 42.23  1.1413 2.0487 145.4 21.7 .952 147
2023 09 20 22  23 33 20.185   +33 20 20.99  1.1412 2.0487 145.4 21.7 .974 147
2023 09 20 23  23 33 17.424   +33 19 59.70  1.1411 2.0487 145.4 21.7 1.00 147
2023 09 21 00  23 33 14.663   +33 19 38.36  1.1410 2.0487 145.4 21.7 1.02 147
2023 09 21 01  23 33 11.903   +33 19 16.97  1.1410 2.0487 145.4 21.7 1.04 146
2023 09 21 02  23 33 09.144   +33 18 55.53  1.1409 2.0487 145.4 21.7 1.06 146
2023 09 21 03  23 33 06.385   +33 18 34.03  1.1408 2.0487 145.5 21.7 1.08 146
2023 09 21 04  23 33 03.626   +33 18 12.48  1.1407 2.0488 145.5 21.7 1.11 146
2023 09 21 05  23 33 00.869   +33 17 50.88  1.1407 2.0488 145.5 21.7 1.13 146
2023 09 21 06  23 32 58.111   +33 17 29.22  1.1406 2.0488 145.5 21.7 1.15 146
2023 09 21 07  23 32 55.355   +33 17 07.52  1.1405 2.0488 145.5 21.7 1.18 146
2023 09 21 08  23 32 52.599   +33 16 45.76  1.1405 2.0488 145.5 21.7 1.20 146
2023 09 21 09  23 32 49.843   +33 16 23.95  1.1404 2.0488 145.6 21.7 1.22 146
2023 09 21 10  23 32 47.089   +33 16 02.09  1.1403 2.0488 145.6 21.7 1.25 146
2023 09 21 11  23 32 44.335   +33 15 40.18  1.1403 2.0488 145.6 21.7 1.27 146
2023 09 21 12  23 32 41.581   +33 15 18.21  1.1402 2.0488 145.6 21.7 1.30 146
2023 09 21 13  23 32 38.828   +33 14 56.20  1.1401 2.0489 145.6 21.7 1.32 146
2023 09 21 14  23 32 36.076   +33 14 34.13  1.1401 2.0489 145.6 21.7 1.34 145
2023 09 21 15  23 32 33.324   +33 14 12.01  1.1400 2.0489 145.7 21.7 1.37 145